Location: Chèvreville
(49.1099°N, 2.8495°E)
Time: 08:51:41
(UTC+00:00)

VELOX 1 - Pass Details

Date: 17 December 2023
Orbit: 608 x 622 km, 98.4° (Epoch: 24 February)

Event Time Altitude Azimuth Distance (km) Brightness Sun altitude
Rises 05:20:20 0° 135° (SE) 2,861 ? -21.3°
Reaches altitude 10° 05:22:42 10° 125° (SE) 1,963 ? -20.9°
Maximum altitude 05:26:23 29° 65° (ENE) 1,129 ? -20.3°
Drops below altitude 10° 05:30:06 10° 5° (N) 1,984 ? -19.7°
Enters shadow 05:31:42 - 357° (N) 2,582 ? -19.5°
